Time,TemperatureF,DewpointF,PressureIn,WindDirection,WindDirectionDegrees,WindSpeedMPH,WindSpeedGustMPH,Humidity,HourlyPrecipIn,Conditions,Clouds,dailyrainin,SoftwareType,DateUTC
2013-09-23 00:00:00,56.0,50.6,29.93,South,180,0.2,0.4,82,0.00,,---,0.00,VWS V14.01,2013-09-23 07:00:00,
2013-09-23 00:05:00,56.0,50.6,29.93,South,180,1.6,1.6,82,0.00,,---,0.00,VWS V14.01,2013-09-23 07:05:00,
2013-09-23 00:10:00,55.8,50.4,29.93,South,180,3.4,3.4,82,0.01,,---,0.01,VWS V14.01,2013-09-23 07:10:00,
2013-09-23 00:15:00,55.6,50.5,29.93,South,180,0.4,2.5,83,0.01,,---,0.01,VWS V14.01,2013-09-23 07:15:00,
2013-09-23 00:20:00,55.3,50.6,29.93,South,180,1.8,1.8,84,0.01,,---,0.01,VWS V14.01,2013-09-23 07:20:00,
2013-09-23 00:25:00,55.1,50.0,29.94,South,180,2.9,2.9,83,0.01,,---,0.01,VWS V14.01,2013-09-23 07:25:00,
2013-09-23 00:30:00,55.1,50.0,29.94,South,180,1.1,1.1,83,0.01,,---,0.01,VWS V14.01,2013-09-23 07:30:00,
2013-09-23 00:35:00,55.1,50.4,29.94,South,180,0.0,0.0,84,0.01,,---,0.01,VWS V14.01,2013-09-23 07:35:00,
2013-09-23 00:40:00,54.9,50.2,29.94,South,180,0.4,0.4,84,0.01,,---,0.01,VWS V14.01,2013-09-23 07:40:00,
2013-09-23 00:45:00,55.1,50.4,29.94,South,180,1.3,1.3,84,0.01,,---,0.03,VWS V14.01,2013-09-23 07:45:00,
2013-09-23 00:50:00,55.1,50.4,29.94,South,180,0.2,1.6,84,0.01,,---,0.01,VWS V14.01,2013-09-23 07:50:00,
2013-09-23 00:55:00,55.1,50.7,29.94,South,180,0.2,1.1,85,0.01,,---,0.01,VWS V14.01,2013-09-23 07:55:00,
2013-09-23 01:00:00,54.9,50.5,29.95,South,180,0.0,0.4,85,0.02,,---,0.02,VWS V14.01,2013-09-23 08:00:00,
2013-09-23 01:05:00,54.9,50.5,29.95,South,180,0.0,0.0,85,0.08,,---,0.08,VWS V14.01,2013-09-23 08:05:00,
2013-09-23 01:10:00,54.7,50.6,29.95,South,180,0.0,0.0,86,0.07,,---,0.08,VWS V14.01,2013-09-23 08:10:00,
2013-09-23 01:15:00,54.5,50.4,29.95,South,180,0.0,0.0,86,0.08,,---,0.09,VWS V14.01,2013-09-23 08:15:00,
2013-09-23 01:20:00,54.4,50.3,29.95,South,180,1.1,1.1,86,0.08,,---,0.09,VWS V14.01,2013-09-23 08:20:00,
2013-09-23 01:25:00,54.4,50.6,29.95,South,180,1.3,1.3,87,0.10,,---,0.11,VWS V14.01,2013-09-23 08:25:00,
2013-09-23 01:30:00,54.2,50.7,29.95,South,180,0.0,0.2,88,0.11,,---,0.12,VWS V14.01,2013-09-23 08:30:00,
2013-09-23 01:35:00,54.2,50.7,29.96,South,180,0.9,0.9,88,0.11,,---,0.12,VWS V14.01,2013-09-23 08:35:00,
2013-09-23 01:40:00,54.0,50.5,29.96,South,180,0.0,0.0,88,0.13,,---,0.14,VWS V14.01,2013-09-23 08:40:00,
2013-09-23 01:45:00,54.0,50.5,29.96,South,180,0.0,0.0,88,0.14,,---,0.15,VWS V14.01,2013-09-23 08:45:00,
2013-09-23 01:50:00,54.0,50.8,29.96,South,180,2.2,2.2,89,0.14,,---,0.15,VWS V14.01,2013-09-23 08:50:00,
2013-09-23 01:55:00,53.8,50.6,29.95,South,180,1.1,1.1,89,0.14,,---,0.15,VWS V14.01,2013-09-23 08:55:00,
2013-09-23 02:00:00,53.6,50.4,29.96,South,180,3.8,3.8,89,0.13,,---,0.15,VWS V14.01,2013-09-23 09:00:00,
2013-09-23 02:05:00,53.8,50.6,29.96,South,180,1.1,1.8,89,0.09,,---,0.15,VWS V14.01,2013-09-23 09:05:00,
2013-09-23 02:10:00,53.6,50.4,29.96,South,180,0.4,0.4,89,0.07,,---,0.15,VWS V14.01,2013-09-23 09:10:00,
2013-09-23 02:15:00,53.6,50.4,29.96,South,180,1.8,1.8,89,0.06,,---,0.15,VWS V14.01,2013-09-23 09:15:00,
2013-09-23 02:20:00,53.6,50.4,29.96,South,180,4.0,4.0,89,0.06,,---,0.15,VWS V14.01,2013-09-23 09:20:00,
2013-09-23 02:25:00,53.6,50.4,29.96,South,180,2.0,2.0,89,0.04,,---,0.15,VWS V14.01,2013-09-23 09:25:00,
2013-09-23 02:30:00,53.6,50.4,29.96,South,180,2.7,3.8,89,0.03,,---,0.15,VWS V14.01,2013-09-23 09:30:00,
2013-09-23 02:35:00,53.6,50.4,29.96,WSW,248,4.9,4.9,89,0.03,,---,0.15,VWS V14.01,2013-09-23 09:35:00,
2013-09-23 02:40:00,53.8,50.3,29.96,South,180,2.0,2.0,88,0.01,,---,0.15,VWS V14.01,2013-09-23 09:40:00,
2013-09-23 02:45:00,53.8,50.3,29.96,South,180,0.4,0.9,88,0.00,,---,0.15,VWS V14.01,2013-09-23 09:45:00,
2013-09-23 02:50:00,53.8,50.3,29.96,South,180,1.1,1.1,88,0.00,,---,0.15,VWS V14.01,2013-09-23 09:50:00,
2013-09-23 02:55:00,53.8,50.3,29.96,South,180,0.7,0.7,88,0.00,,---,0.15,VWS V14.01,2013-09-23 09:55:00,
2013-09-23 03:00:00,53.6,50.1,29.96,South,180,0.0,0.0,88,0.00,,---,0.15,VWS V14.01,2013-09-23 10:00:00,
2013-09-23 03:05:00,53.6,50.4,29.96,South,180,1.8,1.8,89,0.00,,---,0.15,VWS V14.01,2013-09-23 10:05:00,
2013-09-23 03:10:00,53.8,50.3,29.96,South,180,0.4,0.4,88,0.00,,---,0.15,VWS V14.01,2013-09-23 10:10:00,
2013-09-23 03:15:00,53.8,50.3,29.97,South,180,0.9,0.9,88,0.00,,---,0.15,VWS V14.01,2013-09-23 10:15:00,
2013-09-23 03:20:00,53.6,50.1,29.97,South,180,0.0,0.0,88,0.01,,---,0.17,VWS V14.01,2013-09-23 10:20:00,
2013-09-23 03:25:00,53.6,50.1,29.97,South,180,0.4,0.4,88,0.01,,---,0.17,VWS V14.01,2013-09-23 10:25:00,
2013-09-23 03:30:00,53.6,50.4,29.97,South,180,1.1,1.1,89,0.01,,---,0.17,VWS V14.01,2013-09-23 10:30:00,
2013-09-23 03:35:00,53.3,50.2,29.97,South,180,0.4,0.4,89,0.01,,---,0.17,VWS V14.01,2013-09-23 10:35:00,
2013-09-23 03:40:00,53.3,50.2,29.97,South,180,0.9,1.6,89,0.01,,---,0.17,VWS V14.01,2013-09-23 10:40:00,
2013-09-23 03:45:00,53.3,50.2,29.97,South,180,0.2,0.2,89,0.01,,---,0.17,VWS V14.01,2013-09-23 10:45:00,
2013-09-23 03:50:00,53.1,50.0,29.97,South,180,0.4,0.4,89,0.01,,---,0.17,VWS V14.01,2013-09-23 10:50:00,
2013-09-23 03:55:00,53.1,50.0,29.97,South,180,0.0,0.4,89,0.01,,---,0.17,VWS V14.01,2013-09-23 10:55:00,
2013-09-23 04:00:00,53.1,50.0,29.97,South,180,0.4,0.4,89,0.01,,---,0.17,VWS V14.01,2013-09-23 11:00:00,
2013-09-23 04:05:00,53.1,50.0,29.97,South,180,3.4,3.4,89,0.01,,---,0.17,VWS V14.01,2013-09-23 11:05:00,
2013-09-23 04:10:00,53.3,50.2,29.97,SW,225,0.4,0.4,89,0.01,,---,0.17,VWS V14.01,2013-09-23 11:10:00,
2013-09-23 04:15:00,53.6,50.1,29.98,South,180,0.9,0.9,88,0.01,,---,0.17,VWS V14.01,2013-09-23 11:15:00,
2013-09-23 04:20:00,53.6,50.1,29.98,South,180,2.0,3.8,88,0.00,,---,0.17,VWS V14.01,2013-09-23 11:20:00,
2013-09-23 04:25:00,53.6,50.4,29.98,South,180,0.4,0.7,89,0.00,,---,0.17,VWS V14.01,2013-09-23 11:25:00,
2013-09-23 04:30:00,53.6,50.4,29.99,South,180,0.0,0.0,89,0.01,,---,0.17,VWS V14.01,2013-09-23 11:30:00,
2013-09-23 04:35:00,53.5,50.3,29.99,South,180,0.0,0.0,89,0.01,,---,0.17,VWS V14.01,2013-09-23 11:35:00,
2013-09-23 04:40:00,53.5,50.3,29.98,South,180,0.0,0.0,89,0.01,,---,0.17,VWS V14.01,2013-09-23 11:40:00,
2013-09-23 04:45:00,53.3,50.2,29.99,South,180,1.6,2.2,89,0.01,,---,0.17,VWS V14.01,2013-09-23 11:45:00,
2013-09-23 04:49:00,53.3,50.2,29.98,South,180,1.6,1.8,89,0.01,,---,0.17,VWS V14.01,2013-09-23 11:49:00,
2013-09-23 04:54:00,53.3,50.2,29.99,South,180,1.1,2.5,89,0.01,,---,0.17,VWS V14.01,2013-09-23 11:54:00,
2013-09-23 04:59:00,53.3,50.2,29.99,South,180,1.6,1.8,89,0.01,,---,0.17,VWS V14.01,2013-09-23 11:59:00,
2013-09-23 05:04:00,53.5,50.3,29.99,South,180,4.5,4.5,89,0.01,,---,0.17,VWS V14.01,2013-09-23 12:04:00,
2013-09-23 05:09:00,53.6,50.1,29.99,South,180,2.9,2.9,88,0.01,,---,0.17,VWS V14.01,2013-09-23 12:09:00,
2013-09-23 05:14:00,53.6,50.1,29.99,South,180,1.1,4.0,88,0.01,,---,0.17,VWS V14.01,2013-09-23 12:14:00,
2013-09-23 05:19:00,53.6,50.1,29.99,South,180,0.2,3.4,88,0.01,,---,0.17,VWS V14.01,2013-09-23 12:19:00,
2013-09-23 05:24:00,53.6,50.1,29.99,SW,225,0.9,1.3,88,0.02,,---,0.19,VWS V14.01,2013-09-23 12:24:00,
2013-09-23 05:29:00,53.5,50.0,29.99,South,180,0.4,0.9,88,0.01,,---,0.19,VWS V14.01,2013-09-23 12:29:00,
2013-09-23 05:34:00,53.5,50.0,29.99,South,180,1.1,1.8,88,0.01,,---,0.19,VWS V14.01,2013-09-23 12:34:00,
2013-09-23 05:39:00,53.3,49.8,29.99,South,180,2.0,4.0,88,0.01,,---,0.19,VWS V14.01,2013-09-23 12:39:00,
2013-09-23 05:44:00,53.3,49.8,29.99,South,180,0.4,0.9,88,0.01,,---,0.19,VWS V14.01,2013-09-23 12:44:00,
2013-09-23 05:49:00,53.3,49.8,29.99,South,180,1.8,1.8,88,0.01,,---,0.19,VWS V14.01,2013-09-23 12:49:00,
2013-09-23 05:54:00,53.1,49.7,30.00,South,180,1.1,1.1,88,0.01,,---,0.19,VWS V14.01,2013-09-23 12:54:00,
2013-09-23 05:59:00,53.1,50.0,30.00,South,180,0.4,0.4,89,0.02,,---,0.19,VWS V14.01,2013-09-23 12:59:00,
2013-09-23 06:04:00,53.1,50.0,30.00,South,180,0.0,0.0,89,0.02,,---,0.19,VWS V14.01,2013-09-23 13:04:00,
2013-09-23 06:09:00,52.9,49.8,30.00,South,180,0.0,0.0,89,0.02,,---,0.19,VWS V14.01,2013-09-23 13:09:00,
2013-09-23 06:14:00,52.9,49.8,30.00,South,180,0.2,0.2,89,0.02,,---,0.19,VWS V14.01,2013-09-23 13:14:00,
2013-09-23 06:19:00,52.7,49.5,30.00,South,180,0.0,0.0,89,0.02,,---,0.19,VWS V14.01,2013-09-23 13:19:00,
2013-09-23 06:24:00,52.7,49.5,30.00,South,180,0.0,0.0,89,0.01,,---,0.19,VWS V14.01,2013-09-23 13:24:00,
2013-09-23 06:29:00,52.7,49.5,29.99,South,180,0.2,0.2,89,0.01,,---,0.19,VWS V14.01,2013-09-23 13:29:00,
2013-09-23 06:34:00,52.7,49.5,30.00,South,180,0.2,0.4,89,0.01,,---,0.19,VWS V14.01,2013-09-23 13:34:00,
2013-09-23 06:39:00,52.7,49.5,30.00,South,180,0.0,0.0,89,0.01,,---,0.19,VWS V14.01,2013-09-23 13:39:00,
2013-09-23 06:44:00,52.6,49.5,30.00,South,180,0.0,0.0,89,0.01,,---,0.19,VWS V14.01,2013-09-23 13:44:00,
2013-09-23 06:49:00,52.6,49.5,30.00,South,180,0.4,0.4,89,0.01,,---,0.19,VWS V14.01,2013-09-23 13:49:00,
2013-09-23 06:54:00,52.6,49.5,30.00,South,180,0.0,0.0,89,0.01,,---,0.19,VWS V14.01,2013-09-23 13:54:00,
2013-09-23 06:59:00,52.6,49.5,30.01,South,180,1.1,1.1,89,0.00,,---,0.19,VWS V14.01,2013-09-23 13:59:00,
2013-09-23 07:04:00,52.6,49.5,30.00,South,180,0.2,0.2,89,0.00,,---,0.19,VWS V14.01,2013-09-23 14:04:00,
2013-09-23 07:09:00,52.7,49.5,30.00,South,180,0.0,0.0,89,0.01,,---,0.20,VWS V14.01,2013-09-23 14:09:00,
2013-09-23 07:14:00,52.7,49.8,30.00,South,180,0.0,0.0,90,0.02,,---,0.21,VWS V14.01,2013-09-23 14:14:00,
2013-09-23 07:19:00,52.7,49.8,30.00,South,180,0.0,0.0,90,0.02,,---,0.21,VWS V14.01,2013-09-23 14:19:00,
2013-09-23 07:24:00,52.7,49.8,29.99,South,180,0.0,0.0,90,0.02,,---,0.03,VWS V14.01,2013-09-23 14:24:00,
2013-09-23 07:29:00,52.7,49.8,29.99,South,180,0.0,0.0,90,0.02,,---,0.21,VWS V14.01,2013-09-23 14:29:00,
2013-09-23 07:34:00,52.7,49.8,30.00,South,180,0.4,0.7,90,0.02,,---,0.21,VWS V14.01,2013-09-23 14:34:00,
2013-09-23 07:39:00,52.9,50.0,30.00,South,180,1.8,1.8,90,0.02,,---,0.21,VWS V14.01,2013-09-23 14:39:00,
2013-09-23 07:44:00,52.9,50.0,30.00,South,180,0.0,0.2,90,0.02,,---,0.21,VWS V14.01,2013-09-23 14:44:00,
2013-09-23 07:49:00,53.1,50.2,30.01,South,180,1.3,1.3,90,0.02,,---,0.21,VWS V14.01,2013-09-23 14:49:00,
2013-09-23 07:54:00,53.3,50.5,30.01,South,180,1.3,1.3,90,0.02,,---,0.21,VWS V14.01,2013-09-23 14:54:00,
2013-09-23 07:59:00,53.3,50.5,30.01,South,180,0.4,0.9,90,0.02,,---,0.21,VWS V14.01,2013-09-23 14:59:00,
2013-09-23 08:04:00,53.5,50.6,30.01,South,180,0.2,0.4,90,0.02,,---,0.21,VWS V14.01,2013-09-23 15:04:00,
2013-09-23 08:09:00,53.5,50.6,30.01,South,180,0.4,0.4,90,0.01,,---,0.21,VWS V14.01,2013-09-23 15:09:00,
2013-09-23 08:14:00,53.5,50.6,30.01,WNW,292,0.0,0.0,90,0.00,,---,0.21,VWS V14.01,2013-09-23 15:14:00,
2013-09-23 08:19:00,53.6,50.7,30.02,WSW,248,2.5,2.5,90,0.00,,---,0.21,VWS V14.01,2013-09-23 15:19:00,
2013-09-23 08:24:00,53.8,50.6,30.02,South,180,1.3,1.3,89,0.00,,---,0.21,VWS V14.01,2013-09-23 15:24:00,
2013-09-23 08:29:00,53.8,50.6,30.02,South,180,1.1,1.1,89,0.00,,---,0.21,VWS V14.01,2013-09-23 15:29:00,
2013-09-23 08:34:00,54.0,50.8,30.02,South,180,0.0,0.0,89,0.00,,---,0.21,VWS V14.01,2013-09-23 15:34:00,
2013-09-23 08:39:00,54.0,50.8,30.02,South,180,1.1,1.1,89,0.00,,---,0.21,VWS V14.01,2013-09-23 15:39:00,
2013-09-23 08:44:00,54.4,51.2,30.02,South,180,0.9,0.9,89,0.00,,---,0.21,VWS V14.01,2013-09-23 15:44:00,
2013-09-23 08:49:00,54.4,51.2,30.02,South,180,2.5,2.5,89,0.00,,---,0.21,VWS V14.01,2013-09-23 15:49:00,
2013-09-23 08:54:00,54.5,51.0,30.02,South,180,1.6,1.6,88,0.00,,---,0.21,VWS V14.01,2013-09-23 15:54:00,
2013-09-23 08:59:00,54.7,51.2,30.02,South,180,0.9,0.9,88,0.00,,---,0.21,VWS V14.01,2013-09-23 15:59:00,
2013-09-23 09:04:00,54.9,51.4,30.02,South,180,1.1,1.3,88,0.00,,---,0.21,VWS V14.01,2013-09-23 16:04:00,
2013-09-23 09:09:00,55.1,51.0,30.02,WSW,248,3.4,3.4,86,0.00,,---,0.21,VWS V14.01,2013-09-23 16:09:00,
2013-09-23 09:14:00,55.4,51.6,30.02,South,180,0.0,0.0,87,0.00,,---,0.21,VWS V14.01,2013-09-23 16:14:00,
2013-09-23 09:19:00,55.8,51.7,30.03,WSW,248,0.4,0.4,86,0.00,,---,0.21,VWS V14.01,2013-09-23 16:19:00,
2013-09-23 09:24:00,55.8,51.7,30.03,South,180,2.5,2.5,86,0.00,,---,0.21,VWS V14.01,2013-09-23 16:24:00,
2013-09-23 09:29:00,56.2,51.8,30.03,South,180,0.4,0.4,85,0.00,,---,0.21,VWS V14.01,2013-09-23 16:29:00,
2013-09-23 09:34:00,56.5,52.0,30.04,South,180,0.7,0.7,85,0.00,,---,0.21,VWS V14.01,2013-09-23 16:34:00,
2013-09-23 09:39:00,56.5,52.0,30.04,South,180,1.1,1.1,85,0.00,,---,0.21,VWS V14.01,2013-09-23 16:39:00,
2013-09-23 09:44:00,56.5,51.7,30.04,South,180,0.7,0.7,84,0.00,,---,0.21,VWS V14.01,2013-09-23 16:44:00,
2013-09-23 09:49:00,56.7,52.2,30.04,South,180,2.9,2.9,85,0.00,,---,0.21,VWS V14.01,2013-09-23 16:49:00,
2013-09-23 09:54:00,56.9,52.4,30.05,South,180,1.8,1.8,85,0.00,,---,0.21,VWS V14.01,2013-09-23 16:54:00,
2013-09-23 09:59:00,56.9,51.8,30.05,South,180,1.1,2.5,83,0.00,,---,0.21,VWS V14.01,2013-09-23 16:59:00,
2013-09-23 10:04:00,56.9,51.5,30.05,West,270,6.3,6.3,82,0.00,,---,0.21,VWS V14.01,2013-09-23 17:04:00,
2013-09-23 10:09:00,57.1,51.7,30.05,West,270,1.6,1.6,82,0.00,,---,0.21,VWS V14.01,2013-09-23 17:09:00,
2013-09-23 10:14:00,57.1,51.7,30.05,South,180,0.0,0.0,82,0.00,,---,0.21,VWS V14.01,2013-09-23 17:14:00,
2013-09-23 10:19:00,57.1,52.0,30.05,South,180,0.0,0.2,83,0.00,,---,0.21,VWS V14.01,2013-09-23 17:19:00,
2013-09-23 10:24:00,57.2,52.1,30.05,South,180,0.0,0.0,83,0.00,,---,0.21,VWS V14.01,2013-09-23 17:24:00,
2013-09-23 10:29:00,57.2,52.1,30.05,South,180,0.9,0.9,83,0.00,,---,0.21,VWS V14.01,2013-09-23 17:29:00,
2013-09-23 10:34:00,57.2,52.1,30.05,West,270,2.5,2.5,83,0.00,,---,0.21,VWS V14.01,2013-09-23 17:34:00,
2013-09-23 10:39:00,57.4,52.3,30.05,South,180,0.9,0.9,83,0.00,,---,0.21,VWS V14.01,2013-09-23 17:39:00,
2013-09-23 10:44:00,57.6,52.5,30.05,South,180,0.7,0.7,83,0.00,,---,0.21,VWS V14.01,2013-09-23 17:44:00,
2013-09-23 10:49:00,58.0,52.9,30.06,South,180,1.1,1.1,83,0.00,,---,0.21,VWS V14.01,2013-09-23 17:49:00,
2013-09-23 10:54:00,58.1,53.0,30.05,South,180,0.4,0.7,83,0.00,,---,0.21,VWS V14.01,2013-09-23 17:54:00,
2013-09-23 10:59:00,58.7,53.6,30.05,South,180,2.7,4.0,83,0.00,,---,0.21,VWS V14.01,2013-09-23 17:59:00,
2013-09-23 11:04:00,59.6,54.1,30.06,South,180,1.8,1.8,82,0.00,,---,0.21,VWS V14.01,2013-09-23 18:04:00,
2013-09-23 11:08:00,60.5,54.0,30.05,South,180,0.9,1.1,79,0.00,,---,0.21,VWS V14.01,2013-09-23 18:08:00,
2013-09-23 11:13:00,60.8,54.3,30.05,South,180,1.8,1.8,79,0.00,,---,0.21,VWS V14.01,2013-09-23 18:13:00,
2013-09-23 11:18:00,60.8,54.3,30.05,South,180,1.1,1.1,79,0.00,,---,0.21,VWS V14.01,2013-09-23 18:18:00,
2013-09-23 11:23:00,60.5,54.0,30.06,South,180,1.1,2.0,79,0.00,,---,0.21,VWS V14.01,2013-09-23 18:23:00,
2013-09-23 11:28:00,60.1,53.6,30.06,South,180,1.8,1.8,79,0.00,,---,0.21,VWS V14.01,2013-09-23 18:28:00,
2013-09-23 11:33:00,59.4,53.2,30.06,South,180,2.5,2.5,80,0.00,,---,0.21,VWS V14.01,2013-09-23 18:33:00,
2013-09-23 11:38:00,58.7,52.9,30.06,South,180,1.1,1.1,81,0.01,,---,0.22,VWS V14.01,2013-09-23 18:38:00,
2013-09-23 11:43:00,58.1,52.6,30.06,South,180,1.6,1.6,82,0.02,,---,0.24,VWS V14.01,2013-09-23 18:43:00,
2013-09-23 11:48:00,57.8,52.7,30.06,South,180,0.0,1.8,83,0.02,,---,0.24,VWS V14.01,2013-09-23 18:48:00,
2013-09-23 11:53:00,57.6,52.5,30.06,South,180,0.2,1.1,83,0.02,,---,0.24,VWS V14.01,2013-09-23 18:53:00,
2013-09-23 11:58:00,57.4,52.6,30.06,South,180,4.5,4.5,84,0.02,,---,0.24,VWS V14.01,2013-09-23 18:58:00,
2013-09-23 12:03:00,57.4,52.6,30.06,South,180,1.1,1.1,84,0.02,,---,0.24,VWS V14.01,2013-09-23 19:03:00,
2013-09-23 12:08:00,57.4,52.6,30.06,South,180,1.8,2.0,84,0.02,,---,0.24,VWS V14.01,2013-09-23 19:08:00,
2013-09-23 12:13:00,57.4,52.6,30.06,South,180,1.8,1.8,84,0.02,,---,0.24,VWS V14.01,2013-09-23 19:13:00,
2013-09-23 12:18:00,57.6,52.5,30.06,South,180,1.8,1.8,83,0.02,,---,0.03,VWS V14.01,2013-09-23 19:18:00,
2013-09-23 12:23:00,57.8,53.0,30.06,WSW,248,4.5,4.5,84,0.02,,---,0.24,VWS V14.01,2013-09-23 19:23:00,
2013-09-23 12:28:00,58.0,52.9,30.06,South,180,3.4,4.9,83,0.02,,---,0.24,VWS V14.01,2013-09-23 19:28:00,
2013-09-23 12:33:00,58.5,53.4,30.06,South,180,1.6,1.6,83,0.02,,---,0.24,VWS V14.01,2013-09-23 19:33:00,
2013-09-23 12:38:00,58.7,53.2,30.06,South,180,2.5,3.4,82,0.01,,---,0.24,VWS V14.01,2013-09-23 19:38:00,
2013-09-23 12:43:00,59.2,54.0,30.06,South,180,2.5,2.5,83,0.00,,---,0.24,VWS V14.01,2013-09-23 19:43:00,
2013-09-23 12:48:00,59.6,53.8,30.06,South,180,1.6,3.4,81,0.00,,---,0.24,VWS V14.01,2013-09-23 19:48:00,
2013-09-23 12:53:00,59.8,53.3,30.06,South,180,1.1,1.1,79,0.00,,---,0.24,VWS V14.01,2013-09-23 19:53:00,
2013-09-23 12:58:00,59.9,52.7,30.06,South,180,1.1,2.7,77,0.00,,---,0.24,VWS V14.01,2013-09-23 19:58:00,
2013-09-23 13:03:00,60.3,52.7,30.06,South,180,1.1,1.6,76,0.00,,---,0.24,VWS V14.01,2013-09-23 20:03:00,
2013-09-23 13:08:00,60.5,53.3,30.06,South,180,5.4,5.4,77,0.00,,---,0.24,VWS V14.01,2013-09-23 20:08:00,
2013-09-23 13:13:00,60.7,53.1,30.06,South,180,0.9,0.9,76,0.00,,---,0.24,VWS V14.01,2013-09-23 20:13:00,
2013-09-23 13:18:00,60.5,52.2,30.06,South,180,6.7,6.7,74,0.00,,---,0.24,VWS V14.01,2013-09-23 20:18:00,
2013-09-23 13:23:00,60.3,52.3,30.06,South,180,4.7,4.7,75,0.00,,---,0.24,VWS V14.01,2013-09-23 20:23:00,
2013-09-23 13:28:00,60.3,52.7,30.06,South,180,0.0,0.9,76,0.00,,---,0.24,VWS V14.01,2013-09-23 20:28:00,
2013-09-23 13:33:00,60.5,52.9,30.06,South,180,3.4,3.6,76,0.00,,---,0.24,VWS V14.01,2013-09-23 20:33:00,
2013-09-23 13:38:00,60.8,52.5,30.06,SSW,202,1.6,1.6,74,0.00,,---,0.24,VWS V14.01,2013-09-23 20:38:00,
2013-09-23 13:43:00,60.8,52.8,30.06,South,180,1.1,1.1,75,0.00,,---,0.24,VWS V14.01,2013-09-23 20:43:00,
2013-09-23 13:48:00,60.7,52.4,30.06,SSW,202,1.1,1.1,74,0.00,,---,0.24,VWS V14.01,2013-09-23 20:48:00,
2013-09-23 13:53:00,60.3,52.3,30.06,SW,225,1.6,1.6,75,0.00,,---,0.24,VWS V14.01,2013-09-23 20:53:00,
2013-09-23 13:58:00,60.1,52.5,30.07,South,180,2.5,2.5,76,0.00,,---,0.24,VWS V14.01,2013-09-23 20:58:00,
2013-09-23 14:03:00,59.6,52.4,30.07,South,180,1.6,1.6,77,0.01,,---,0.24,VWS V14.01,2013-09-23 21:03:00,
2013-09-23 14:08:00,58.5,52.0,30.08,South,180,0.0,0.0,79,0.01,,---,0.24,VWS V14.01,2013-09-23 21:08:00,
2013-09-23 14:13:00,58.0,51.9,30.08,South,180,0.0,0.0,80,0.09,,---,0.33,VWS V14.01,2013-09-23 21:13:00,
2013-09-23 14:18:00,57.6,51.8,30.08,ESE,112,4.0,4.0,81,0.13,,---,0.37,VWS V14.01,2013-09-23 21:18:00,
2013-09-23 14:23:00,57.2,52.1,30.08,South,180,0.2,0.2,83,0.15,,---,0.39,VWS V14.01,2013-09-23 21:23:00,
2013-09-23 14:28:00,56.9,51.8,30.08,South,180,0.0,0.0,83,0.16,,---,0.40,VWS V14.01,2013-09-23 21:28:00,
2013-09-23 14:33:00,56.7,51.6,30.08,South,180,0.0,0.0,83,0.16,,---,0.40,VWS V14.01,2013-09-23 21:33:00,
2013-09-23 14:38:00,56.5,51.7,30.08,South,180,0.0,0.0,84,0.16,,---,0.40,VWS V14.01,2013-09-23 21:38:00,
2013-09-23 14:43:00,56.5,51.7,30.08,South,180,0.4,0.4,84,0.16,,---,0.40,VWS V14.01,2013-09-23 21:43:00,
2013-09-23 14:48:00,56.5,52.0,30.07,South,180,0.4,0.4,85,0.16,,---,0.40,VWS V14.01,2013-09-23 21:48:00,
2013-09-23 14:53:00,56.3,51.9,30.07,South,180,0.7,0.7,85,0.16,,---,0.40,VWS V14.01,2013-09-23 21:53:00,
2013-09-23 14:58:00,56.3,52.2,30.07,South,180,1.3,1.3,86,0.16,,---,0.40,VWS V14.01,2013-09-23 21:58:00,
2013-09-23 15:03:00,56.3,52.2,30.08,South,180,1.6,1.6,86,0.15,,---,0.40,VWS V14.01,2013-09-23 22:03:00,
2013-09-23 15:08:00,56.3,52.2,30.07,South,180,1.1,1.1,86,0.15,,---,0.40,VWS V14.01,2013-09-23 22:08:00,
2013-09-23 15:13:00,56.3,52.5,30.08,South,180,1.6,1.6,87,0.07,,---,0.40,VWS V14.01,2013-09-23 22:13:00,
2013-09-23 15:18:00,56.3,52.2,30.07,South,180,0.0,0.2,86,0.03,,---,0.40,VWS V14.01,2013-09-23 22:18:00,
2013-09-23 15:23:00,56.5,52.7,30.08,South,180,0.0,0.4,87,0.01,,---,0.40,VWS V14.01,2013-09-23 22:23:00,
2013-09-23 15:28:00,56.5,52.7,30.08,South,180,1.1,1.1,87,0.00,,---,0.40,VWS V14.01,2013-09-23 22:28:00,
2013-09-23 15:33:00,56.7,52.9,30.08,South,180,2.0,2.0,87,0.00,,---,0.40,VWS V14.01,2013-09-23 22:33:00,
2013-09-23 15:38:00,56.9,53.1,30.08,South,180,1.1,1.1,87,0.00,,---,0.40,VWS V14.01,2013-09-23 22:38:00,
2013-09-23 15:43:00,56.9,52.8,30.08,South,180,1.3,1.6,86,0.00,,---,0.40,VWS V14.01,2013-09-23 22:43:00,
2013-09-23 15:48:00,57.2,53.1,30.08,South,180,1.3,1.3,86,0.00,,---,0.40,VWS V14.01,2013-09-23 22:48:00,
2013-09-23 15:53:00,57.4,53.9,30.08,South,180,0.0,0.0,88,0.00,,---,0.40,VWS V14.01,2013-09-23 22:53:00,
2013-09-23 15:58:00,57.8,54.3,30.08,South,180,1.6,2.5,88,0.05,,---,0.45,VWS V14.01,2013-09-23 22:58:00,
2013-09-23 16:03:00,57.6,53.8,30.08,South,180,0.2,0.4,87,0.05,,---,0.45,VWS V14.01,2013-09-23 23:03:00,
2013-09-23 16:08:00,57.6,53.8,30.08,South,180,0.0,0.0,87,0.05,,---,0.45,VWS V14.01,2013-09-23 23:08:00,
2013-09-23 16:13:00,57.4,53.6,30.08,South,180,1.3,1.3,87,0.05,,---,0.45,VWS V14.01,2013-09-23 23:13:00,
2013-09-23 16:18:00,57.6,53.8,30.08,South,180,0.9,0.9,87,0.05,,---,0.45,VWS V14.01,2013-09-23 23:18:00,
2013-09-23 16:23:00,57.8,54.0,30.08,South,180,1.8,1.8,87,0.05,,---,0.45,VWS V14.01,2013-09-23 23:23:00,
2013-09-23 16:28:00,58.1,54.3,30.08,South,180,1.1,1.1,87,0.05,,---,0.45,VWS V14.01,2013-09-23 23:28:00,
2013-09-23 16:33:00,58.5,54.3,30.08,South,180,2.5,2.5,86,0.05,,---,0.45,VWS V14.01,2013-09-23 23:33:00,
2013-09-23 16:38:00,58.5,54.0,30.08,South,180,0.0,0.0,85,0.05,,---,0.45,VWS V14.01,2013-09-23 23:38:00,
2013-09-23 16:43:00,58.1,53.6,30.08,South,180,0.0,0.0,85,0.05,,---,0.45,VWS V14.01,2013-09-23 23:43:00,
2013-09-23 16:48:00,58.0,53.5,30.08,South,180,0.0,0.0,85,0.05,,---,0.45,VWS V14.01,2013-09-23 23:48:00,
2013-09-23 16:53:00,57.8,53.7,30.08,South,180,0.0,0.0,86,0.05,,---,0.45,VWS V14.01,2013-09-23 23:53:00,
2013-09-23 16:58:00,57.6,53.5,30.08,South,180,0.0,0.0,86,0.00,,---,0.45,VWS V14.01,2013-09-23 23:58:00,
2013-09-23 17:03:00,57.6,53.5,30.08,South,180,0.0,0.0,86,0.00,,---,0.45,VWS V14.01,2013-09-24 00:03:00,
2013-09-23 17:08:00,57.4,53.2,30.09,South,180,0.0,0.0,86,0.00,,---,0.45,VWS V14.01,2013-09-24 00:08:00,
2013-09-23 17:13:00,57.2,52.7,30.09,South,180,0.4,0.4,85,0.00,,---,0.45,VWS V14.01,2013-09-24 00:13:00,
2013-09-23 17:18:00,57.1,53.0,30.09,South,180,0.0,0.0,86,0.00,,---,0.45,VWS V14.01,2013-09-24 00:18:00,
2013-09-23 17:23:00,57.1,53.0,30.09,South,180,0.0,0.0,86,0.00,,---,0.45,VWS V14.01,2013-09-24 00:23:00,
2013-09-23 17:28:00,56.7,52.6,30.09,South,180,0.0,0.0,86,0.00,,---,0.45,VWS V14.01,2013-09-24 00:28:00,
2013-09-23 17:33:00,56.7,52.6,30.09,South,180,0.4,1.1,86,0.00,,---,0.45,VWS V14.01,2013-09-24 00:33:00,
2013-09-23 17:38:00,56.5,52.4,30.09,South,180,0.0,0.4,86,0.01,,---,0.46,VWS V14.01,2013-09-24 00:38:00,
2013-09-23 17:43:00,56.3,52.2,30.09,South,180,0.4,0.4,86,0.01,,---,0.46,VWS V14.01,2013-09-24 00:43:00,
2013-09-23 17:48:00,56.0,51.9,30.09,South,180,0.0,0.0,86,0.01,,---,0.46,VWS V14.01,2013-09-24 00:48:00,
2013-09-23 17:53:00,55.8,52.0,30.10,South,180,0.4,0.4,87,0.01,,---,0.46,VWS V14.01,2013-09-24 00:53:00,
2013-09-23 17:58:00,55.8,52.0,30.10,South,180,0.0,0.0,87,0.04,,---,0.49,VWS V14.01,2013-09-24 00:58:00,
2013-09-23 18:03:00,55.8,52.0,30.10,South,180,0.4,0.4,87,0.04,,---,0.49,VWS V14.01,2013-09-24 01:03:00,
2013-09-23 18:07:00,55.6,51.8,30.10,South,180,0.4,0.4,87,0.04,,---,0.49,VWS V14.01,2013-09-24 01:07:00,
2013-09-23 18:12:00,55.8,52.0,30.09,South,180,0.4,0.4,87,0.06,,---,0.51,VWS V14.01,2013-09-24 01:12:00,
2013-09-23 18:17:00,55.6,51.8,30.09,South,180,0.4,0.4,87,0.07,,---,0.52,VWS V14.01,2013-09-24 01:17:00,
2013-09-23 18:22:00,55.4,51.6,30.09,South,180,0.0,0.0,87,0.07,,---,0.52,VWS V14.01,2013-09-24 01:22:00,
2013-09-23 18:27:00,55.3,51.8,30.09,South,180,0.0,0.0,88,0.07,,---,0.52,VWS V14.01,2013-09-24 01:27:00,
2013-09-23 18:32:00,55.1,51.6,30.09,South,180,1.1,1.1,88,0.07,,---,0.52,VWS V14.01,2013-09-24 01:32:00,
2013-09-23 18:37:00,55.1,51.6,30.09,South,180,1.1,1.1,88,0.07,,---,0.03,VWS V14.01,2013-09-24 01:37:00,
2013-09-23 18:42:00,55.1,51.6,30.09,South,180,0.4,0.4,88,0.06,,---,0.52,VWS V14.01,2013-09-24 01:42:00,
2013-09-23 18:47:00,54.7,51.2,30.09,South,180,0.0,0.0,88,0.06,,---,0.52,VWS V14.01,2013-09-24 01:47:00,
2013-09-23 18:52:00,54.7,51.2,30.09,South,180,0.0,0.0,88,0.06,,---,0.52,VWS V14.01,2013-09-24 01:52:00,
2013-09-23 18:57:00,54.7,51.2,30.10,South,180,0.4,0.4,88,0.06,,---,0.52,VWS V14.01,2013-09-24 01:57:00,
2013-09-23 19:02:00,54.7,51.2,30.10,South,180,0.2,0.4,88,0.03,,---,0.52,VWS V14.01,2013-09-24 02:02:00,
2013-09-23 19:07:00,54.5,51.3,30.09,South,180,1.6,1.6,89,0.03,,---,0.52,VWS V14.01,2013-09-24 02:07:00,
2013-09-23 19:12:00,54.5,51.3,30.09,NE,45,1.8,1.8,89,0.03,,---,0.52,VWS V14.01,2013-09-24 02:12:00,
2013-09-23 19:17:00,54.4,51.2,30.09,NE,45,0.0,0.0,89,0.00,,---,0.52,VWS V14.01,2013-09-24 02:17:00,
2013-09-23 19:22:00,54.4,51.2,30.10,NE,45,0.0,0.0,89,0.00,,---,0.52,VWS V14.01,2013-09-24 02:22:00,
2013-09-23 19:27:00,54.4,51.2,30.10,NE,45,0.0,0.0,89,0.00,,---,0.52,VWS V14.01,2013-09-24 02:27:00,
2013-09-23 19:32:00,54.2,51.0,30.10,NE,45,0.0,0.0,89,0.00,,---,0.52,VWS V14.01,2013-09-24 02:32:00,
2013-09-23 19:37:00,54.2,51.0,30.10,NE,45,0.7,0.7,89,0.00,,---,0.52,VWS V14.01,2013-09-24 02:37:00,
2013-09-23 19:42:00,54.2,51.0,30.10,NNE,22,0.9,0.9,89,0.00,,---,0.52,VWS V14.01,2013-09-24 02:42:00,
2013-09-23 19:47:00,54.2,51.0,30.11,NNE,22,0.4,0.4,89,0.00,,---,0.52,VWS V14.01,2013-09-24 02:47:00,
2013-09-23 19:52:00,54.2,51.0,30.10,NNE,22,0.4,0.7,89,0.00,,---,0.52,VWS V14.01,2013-09-24 02:52:00,
2013-09-23 19:57:00,54.0,50.8,30.10,NNE,22,0.0,0.0,89,0.00,,---,0.52,VWS V14.01,2013-09-24 02:57:00,
2013-09-23 20:02:00,54.0,50.8,30.10,NNE,22,0.0,0.4,89,0.00,,---,0.52,VWS V14.01,2013-09-24 03:02:00,
2013-09-23 20:07:00,53.6,50.4,30.11,NNE,22,1.1,1.1,89,0.00,,---,0.52,VWS V14.01,2013-09-24 03:07:00,
2013-09-23 20:12:00,53.6,50.4,30.11,NE,45,1.1,1.3,89,0.00,,---,0.52,VWS V14.01,2013-09-24 03:12:00,
2013-09-23 20:17:00,53.5,50.3,30.11,North,0,0.2,0.2,89,0.00,,---,0.52,VWS V14.01,2013-09-24 03:17:00,
2013-09-23 20:22:00,53.3,50.2,30.11,NE,45,1.1,1.1,89,0.00,,---,0.52,VWS V14.01,2013-09-24 03:22:00,
2013-09-23 20:27:00,53.3,50.2,30.12,NE,45,1.1,1.1,89,0.00,,---,0.52,VWS V14.01,2013-09-24 03:27:00,
2013-09-23 20:32:00,53.1,50.0,30.12,NNE,22,0.7,0.7,89,0.00,,---,0.52,VWS V14.01,2013-09-24 03:32:00,
2013-09-23 20:37:00,53.1,50.0,30.12,NNE,22,0.2,0.9,89,0.00,,---,0.52,VWS V14.01,2013-09-24 03:37:00,
2013-09-23 20:42:00,53.1,50.0,30.12,NNE,22,0.4,0.4,89,0.00,,---,0.52,VWS V14.01,2013-09-24 03:42:00,
2013-09-23 20:47:00,53.1,50.2,30.12,NNE,22,0.7,0.7,90,0.00,,---,0.52,VWS V14.01,2013-09-24 03:47:00,
2013-09-23 20:52:00,53.1,50.2,30.12,NNE,22,1.1,1.1,90,0.00,,---,0.52,VWS V14.01,2013-09-24 03:52:00,
2013-09-23 20:57:00,53.1,50.2,30.12,NNE,22,0.0,0.0,90,0.00,,---,0.52,VWS V14.01,2013-09-24 03:57:00,
2013-09-23 21:01:00,52.9,50.0,30.12,NNE,22,0.4,0.4,90,0.00,,---,0.52,VWS V14.01,2013-09-24 04:01:00,
2013-09-23 21:06:00,52.9,50.0,30.12,NNE,22,0.4,0.4,90,0.00,,---,0.52,VWS V14.01,2013-09-24 04:06:00,
2013-09-23 21:11:00,52.9,50.0,30.12,NNE,22,0.4,0.4,90,0.00,,---,0.52,VWS V14.01,2013-09-24 04:11:00,
2013-09-23 21:16:00,52.9,50.0,30.12,NNE,22,1.1,1.1,90,0.00,,---,0.52,VWS V14.01,2013-09-24 04:16:00,
2013-09-23 21:21:00,52.9,50.0,30.12,NNE,22,0.9,0.9,90,0.00,,---,0.52,VWS V14.01,2013-09-24 04:21:00,
2013-09-23 21:26:00,52.9,50.0,30.12,NNE,22,1.6,1.6,90,0.00,,---,0.52,VWS V14.01,2013-09-24 04:26:00,
2013-09-23 21:31:00,52.9,50.0,30.12,NNE,22,1.8,1.8,90,0.00,,---,0.52,VWS V14.01,2013-09-24 04:31:00,
2013-09-23 21:36:00,52.9,50.0,30.12,NE,45,1.3,1.3,90,0.00,,---,0.52,VWS V14.01,2013-09-24 04:36:00,
2013-09-23 21:41:00,52.7,49.8,30.12,NE,45,1.1,1.1,90,0.00,,---,0.52,VWS V14.01,2013-09-24 04:41:00,
2013-09-23 21:46:00,52.7,49.8,30.12,NE,45,1.1,1.1,90,0.00,,---,0.52,VWS V14.01,2013-09-24 04:46:00,
2013-09-23 21:51:00,52.6,49.8,30.12,North,0,0.0,0.4,90,0.00,,---,0.52,VWS V14.01,2013-09-24 04:51:00,
2013-09-23 21:56:00,52.6,49.8,30.12,NE,45,0.0,0.0,90,0.00,,---,0.52,VWS V14.01,2013-09-24 04:56:00,
2013-09-23 22:01:00,52.4,49.6,30.12,North,0,0.0,0.0,90,0.00,,---,0.52,VWS V14.01,2013-09-24 05:01:00,
2013-09-23 22:06:00,52.2,49.4,30.12,North,0,0.4,1.8,90,0.00,,---,0.52,VWS V14.01,2013-09-24 05:06:00,
2013-09-23 22:11:00,52.2,49.4,30.12,North,0,1.1,1.1,90,0.00,,---,0.52,VWS V14.01,2013-09-24 05:11:00,
2013-09-23 22:16:00,52.0,49.5,30.12,North,0,0.9,0.9,91,0.00,,---,0.52,VWS V14.01,2013-09-24 05:16:00,
2013-09-23 22:20:00,52.0,49.5,30.12,NNE,22,1.3,1.3,91,0.00,,---,0.52,VWS V14.01,2013-09-24 05:20:00,
2013-09-23 22:25:00,52.0,49.5,30.12,NE,45,1.3,1.3,91,0.00,,---,0.52,VWS V14.01,2013-09-24 05:25:00,
2013-09-23 22:30:00,52.0,49.5,30.12,NE,45,0.0,0.0,91,0.00,,---,0.52,VWS V14.01,2013-09-24 05:30:00,
2013-09-23 22:35:00,52.2,49.7,30.12,NE,45,0.0,0.0,91,0.00,,---,0.52,VWS V14.01,2013-09-24 05:35:00,
2013-09-23 22:40:00,52.0,49.5,30.12,NE,45,0.0,0.0,91,0.00,,---,0.52,VWS V14.01,2013-09-24 05:40:00,
2013-09-23 22:45:00,52.0,49.5,30.13,NE,45,0.0,0.0,91,0.00,,---,0.03,VWS V14.01,2013-09-24 05:45:00,
2013-09-23 22:50:00,51.8,49.3,30.13,NE,45,0.0,0.0,91,0.00,,---,0.52,VWS V14.01,2013-09-24 05:50:00,
2013-09-23 22:55:00,51.8,49.3,30.13,NE,45,0.0,0.0,91,0.00,,---,0.52,VWS V14.01,2013-09-24 05:55:00,
2013-09-23 23:00:00,51.8,49.0,30.13,NE,45,0.0,0.0,90,0.00,,---,0.52,VWS V14.01,2013-09-24 06:00:00,
2013-09-23 23:05:00,51.7,48.9,30.13,NE,45,0.2,0.2,90,0.00,,---,0.52,VWS V14.01,2013-09-24 06:05:00,
2013-09-23 23:10:00,51.7,48.9,30.13,NE,45,0.4,0.4,90,0.00,,---,0.52,VWS V14.01,2013-09-24 06:10:00,
2013-09-23 23:15:00,51.5,48.7,30.12,NE,45,0.0,0.0,90,0.00,,---,0.52,VWS V14.01,2013-09-24 06:15:00,
2013-09-23 23:20:00,51.5,48.7,30.12,NE,45,0.4,0.4,90,0.00,,---,0.52,VWS V14.01,2013-09-24 06:20:00,
2013-09-23 23:25:00,51.3,48.5,30.12,NE,45,0.0,0.0,90,0.00,,---,0.52,VWS V14.01,2013-09-24 06:25:00,
2013-09-23 23:30:00,51.1,48.3,30.12,NE,45,0.0,0.0,90,0.00,,---,0.52,VWS V14.01,2013-09-24 06:30:00,
2013-09-23 23:35:00,50.9,48.1,30.12,NE,45,0.4,0.7,90,0.00,,---,0.52,VWS V14.01,2013-09-24 06:35:00,
2013-09-23 23:40:00,50.8,48.0,30.12,NE,45,1.1,1.1,90,0.00,,---,0.52,VWS V14.01,2013-09-24 06:40:00,
2013-09-23 23:45:00,50.8,48.0,30.12,NNE,22,0.7,0.7,90,0.00,,---,0.52,VWS V14.01,2013-09-24 06:45:00,
2013-09-23 23:50:00,50.6,47.8,30.12,North,0,0.0,0.4,90,0.00,,---,0.52,VWS V14.01,2013-09-24 06:50:00,
2013-09-23 23:55:00,50.6,47.8,30.12,NNW,338,0.0,0.0,90,0.00,,---,0.52,VWS V14.01,2013-09-24 06:55:00,